Regional Weather Roundup
Issued by NWS

Home | Current Version | Previous Version | Graphics & Text | Print | Product List | Glossary On
Versions: 1 2 3 4 5 6 7 8 9 10 11 12 13 14 15 16 17 18 19 20 21 22 23 24 25 26 27 28 29 30 31 32 33 34 35 36 37 38 39 40 41 42 43 44 45 46 47 48 49 50
948
ASUS43 KLMK 131202
RWRKY
KENTUCKY REGIONAL WEATHER ROUNDUP
NATIONAL WEATHER SERVICE LOUISVILLE KY
700 AM EST SAT FEB 13 2016

NOTE "FAIR" INDICATES FEW OR NO CLOUDS BELOW 12,000 FEET
WITH NO SIGNIFICANT WEATHER AND/OR OBSTRUCTIONS TO VISIBILITY.

KYZ001>023-026-027-061>063-070>075-131300-
WESTERN AND SOUTH CENTRAL KENTUCKY

CITY           SKY/WX    TMP DP  RH WIND       PRES   REMARKS
PADUCAH        CLEAR     17   5  59 N14       30.58R WCI   3
HENDERSON      CLEAR     16   3  57 NW9G16    30.59R WCI   4
OWENSBORO      CLEAR     15   5  64 N12       30.58R WCI   2
HOPKINSVILLE   CLEAR     17   5  57 N9        30.53R WCI   6
BOWLING GREEN  CLEAR     19   6  57 N7        30.52R WCI  10
GLASGOW        NOT AVBL
$$

KYZ024-025-028>034-038-045-046-053-131300-
NORTH CENTRAL KENTUCKY

CITY           SKY/WX    TMP DP  RH WIND       PRES   REMARKS
LOUISVILLE/SDF PTCLDY    16   0  49 NW10      30.52R WCI   4
LOUISVILLE/LOU CLEAR     16   0  49 NW8       30.53R WCI   5
FORT KNOX      PTCLDY    14   4  66 NW5       30.49R WCI   6
$$

KYZ035>037-039>044-047>052-055>060-089>105-131300-
NORTHEAST KENTUCKY

CITY           SKY/WX    TMP DP  RH WIND       PRES   REMARKS
LEXINGTON      MOCLDY    14   5  67 NW7       30.45R WCI   4
COVINGTON      PTCLDY    11   2  67 NW9       30.46R WCI  -2
FRANKFORT      PTCLDY    15   1  53 NW12      30.47R WCI   2
$$

KYZ054-064>069-076>088-106>120-131300-
SOUTHEAST KENTUCKY

CITY           SKY/WX    TMP DP  RH WIND       PRES   REMARKS
JACKSON        FLURRIES  15   6  67 VRB6G16   30.37R WCI   6
LONDON         CLOUDY    17   5  59 N10       30.39R WCI   5
SOMERSET       NOT AVBL
MIDDLESBORO    NOT AVBL
MONTICELLO     PTSUNNY   17   7  64 N15G22    30.45R WCI   2
$$





USA.gov is the U.S. government's official web portal to all federal, state and local government web resources and services.